Temperature
22 22 22 22 22 21 21 20 20 20 19 19 19 19 18 18 18 18 17 17 17 17 17 17 17 17 17 17 17 17 17 17 17 17 17 17 17 18 18 18 18 18 18
22 22 22 22 22 22 21 21 21 20 20 19 19 19 18 18 17 17 17 16 16 16 16 16 16 16 17 17 17 17 16 17 17 17 17 16 17 17 18 18 18 18 18
22 22 22 22 22 22 22 22 21 20 20 19 19 19 18 17 17 17 16 16 16 16 16 16 16 16 16 16 17 17 16 16 16 16 16 16 16 17 17 17 17 18 18
22 22 23 23 22 22 22 21 21 20 20 19 19 18 18 17 16 16 15 15 15 15 15 15 16 16 16 16 16 16 16 16 15 16 16 16 15 15 15 16 16 16 17
22 23 23 23 22 22 21 21 20 20 20 19 19 18 18 17 16 15 15 15 15 15 15 15 15 15 15 15 14 14 15 15 15 15 15 15 15 14 14 14 15 15 16
23 23 23 23 22 22 21 21 20 20 20 19 19 18 17 17 16 15 15 15 15 15 14 14 13 13 13 13 13 13 14 14 15 15 15 15 14 14 14 14 14 15 15
23 23 23 23 23 22 21 21 20 20 20 19 19 18 17 16 16 15 15 14 14 14 14 13 13 13 13 13 13 13 14 14 14 14 14 15 15 14 14 14 14 14 14
22 22 22 22 22 22 21 21 21 20 20 19 19 18 16 16 15 15 14 14 14 13 13 13 13 13 13 13 13 14 14 14 14 14 14 14 14 14 13 13 14 14 14
19 20 21 21 21 22 22 21 21 20 20 19 18 17 16 15 15 14 14 14 13 13 13 13 13 13 13 13 14 14 14 14 14 14 14 14 13 13 13 13 13 13 13
18 19 20 20 21 21 21 21 20 20 19 18 18 17 16 15 15 14 14 14 13 13 13 13 13 13 13 13 14 14 14 14 14 13 13 13 13 13 13 13 13 13 13
16 17 18 19 19 19 19 19 19 18 18 17 17 16 16 15 15 15 14 14 13 13 13 13 12 12 12 13 13 13 13 13 13 13 13 13 13 13 13 13 13 13 13
13 14 15 15 16 16 16 17 17 17 17 17 16 16 16 16 15 15 14 14 13 13 13 12 12 12 12 12 12 12 12 12 12 12 12 12 12 13 13 13 13 13 13
12 13 13 13 13 14 14 15 15 16 16 16 16 16 16 15 15 15 14 13 13 13 13 12 12 11 11 11 11 12 12 12 12 12 12 12 12 12 12 13 12 13 13
11 12 12 13 13 13 13 13 13 14 14 15 15 15 15 15 15 15 14 13 13 13 13 12 12 11 11 11 11 11 11 12 12 12 12 12 12 12 12 12 12 13 12
10 10 10 11 12 12 13 13 12 12 13 13 14 14 15 15 15 14 14 13 13 12 12 12 12 11 11 11 11 11 11 11 11 11 11 11 12 12 12 12 13 13 13
9 9 9 10 10 10 11 11 11 11 11 12 12 13 14 14 15 14 14 13 13 12 12 12 12 11 11 11 11 11 11 11 11 11 11 11 12 12 12 12 12 12 13
8 8 9 9 9 9 9 9 10 10 10 11 11 12 12 13 14 14 13 13 13 12 12 12 11 11 11 11 11 11 11 11 11 11 11 11 11 12 12 12 12 12 12
9 9 9 9 9 9 9 9 9 9 10 10 10 11 11 12 12 13 13 13 12 12 12 12 11 11 11 11 11 11 11 11 11 11 11 11 11 11 11 12 12 11 11
10 10 10 10 10 10 9 9 9 9 9 9 10 10 10 11 11 11 11 12 12 12 12 12 11 11 11 11 11 11 11 11 11 11 11 11 11 11 11 11 11 11 11
10 10 10 10 10 10 9 9 9 9 9 9 9 9 9 10 10 10 10 11 11 11 11 11 11 11 12 12 11 11 11 11 11 11 11 11 11 11 11 11 11 11 11
10 10 10 10 10 10 9 9 9 9 9 8 8 8 9 9 9 9 9 10 10 11 11 11 11 11 12 12 11 11 11 11 11 11 11 10 10 10 10 10 10 10 10
9 9 9 9 9 9 9 9 9 9 9 8 8 8 8 8 8 8 8 9 9 10 10 10 11 11 11 11 11 11 11 11 11 11 11 10 10 10 10 9 9 9 9
8 8 8 8 8 8 8 8 8 8 8 8 8 8 8 8 8 8 8 8 8 9 9 10 11 11 11 11 11 11 11 11 11 11 11 10 10 9 9 8 8 8 8
7 7 7 7 7 7 7 7 7 7 7 7 7 7 8 8 8 7 7 7 7 8 9 10 11 11 11 11 11 11 11 11 10 10 10 9 9 9 8 8 8 8 8
7 6 6 6 6 6 6 6 6 6 6 6 6 7 7 7 7 7 7 7 7 7 8 9 11 11 11 11 11 11 11 11 10 10 10 9 9 9 8 8 8 8 7
5 5 5 5 5 5 5 5 5 5 5 5 6 6 7 7 7 6 6 7 6 7 7 8 10 12 12 12 11 11 11 11 11 10 10 9 9 9 9 8 8 8 8
Wind_Speed
2 0 1 2 3 3 4 4 4 4 4 2 2 2 3 3 2 3 4 5 6 6 4 5 6 6 6 8 8 8 9 8 5 4 6 6 8 10 10 10 10 12 13
3 4 5 4 4 4 3 3 4 4 3 2 2 2 2 2 2 2 3 4 5 7 6 7 7 7 7 8 8 8 5 5 6 5 5 4 4 6 7 8 9 10 9
9 9 9 8 6 6 6 5 6 5 4 4 2 1 1 2 2 2 3 3 5 6 6 7 8 8 8 9 9 9 9 8 7 8 6 5 6 3 2 3 5 6 6
11 10 9 9 9 9 7 7 6 5 4 4 4 4 3 3 2 1 3 6 7 8 8 9 10 10 9 10 11 10 10 10 8 7 9 8 5 4 3 2 2 3 5
13 11 10 10 7 5 5 6 5 5 4 4 5 5 4 3 2 2 4 5 7 8 10 10 11 11 10 11 11 11 11 10 10 8 7 9 7 7 6 5 3 2 3
11 9 8 6 5 4 5 4 5 6 6 6 6 7 7 6 4 3 4 5 6 7 8 10 10 10 10 10 10 10 11 10 11 10 8 7 5 6 7 8 6 4 2
8 8 9 8 7 7 7 5 6 8 7 6 6 7 7 6 5 4 4 5 5 6 9 9 9 9 9 10 9 9 9 10 11 10 8 8 7 4 6 7 6 5 2
6 8 9 9 9 9 8 6 7 8 7 6 6 5 6 4 4 5 5 5 5 7 9 10 10 9 9 8 7 6 8 7 9 9 9 7 7 6 6 6 5 4 2
8 8 9 9 9 9 8 7 8 7 6 6 6 6 6 6 6 6 5 5 5 6 8 10 10 10 8 7 5 5 6 6 7 7 7 6 6 7 7 6 6 6 5
11 12 11 11 9 7 7 5 5 5 4 5 6 6 7 7 7 6 6 6 5 4 7 9 10 10 8 7 5 5 5 4 4 3 4 5 5 6 7 7 6 4 4
13 14 15 14 12 11 10 9 9 8 6 6 7 7 8 8 7 7 7 5 4 5 6 8 9 9 9 8 6 4 3 2 2 1 2 3 4 5 5 5 4 3 4
12 13 15 16 16 15 13 12 10 9 8 7 7 9 8 8 8 9 8 5 5 4 4 6 7 8 9 8 7 5 5 5 5 4 3 4 5 6 6 6 5 4 5
14 14 14 14 14 13 13 13 12 11 11 8 8 9 9 9 10 10 8 6 5 4 3 3 4 6 8 8 8 8 8 9 8 8 7 6 7 6 5 6 6 6 7
12 13 12 12 12 11 10 11 11 10 11 10 9 10 11 12 11 10 8 7 5 3 2 1 2 4 6 7 8 8 8 9 9 8 7 6 5 5 6 7 9 10 10
16 15 14 13 13 13 12 11 11 11 11 11 10 10 11 11 10 10 9 7 6 5 3 2 1 3 3 5 6 6 6 7 9 8 7 6 8 8 7 8 10 10 10
19 18 16 15 14 14 14 13 11 11 10 11 11 11 11 10 11 11 9 8 7 6 5 4 1 1 1 4 6 4 4 5 7 7 6 8 11 15 16 15 12 9 9
17 16 15 14 13 12 13 13 12 10 10 9 10 10 11 11 10 9 9 10 9 8 7 6 4 2 2 5 8 7 4 3 4 5 6 7 7 10 11 13 14 13 11
14 14 14 13 12 12 13 13 11 10 10 10 9 9 10 10 9 8 10 10 8 9 8 7 7 5 4 8 11 8 4 5 4 4 6 7 6 6 10 11 11 10 8
14 14 14 14 12 13 13 13 12 11 11 11 10 9 9 10 10 8 9 8 8 9 8 7 8 7 6 12 15 12 6 6 6 5 5 7 7 8 12 13 12 12 10
16 15 14 13 13 14 11 11 12 11 12 12 11 10 9 8 9 9 9 7 8 10 10 9 9 9 8 14 17 15 8 7 6 5 5 7 9 10 11 11 12 12 7
20 19 17 15 14 13 11 13 13 13 14 12 11 11 10 8 8 7 7 7 8 9 10 10 9 9 10 15 18 17 9 9 8 6 5 5 11 12 12 11 9 10 9
18 18 16 18 15 12 11 14 15 16 14 12 13 13 11 9 8 6 6 7 8 10 11 10 9 7 8 12 15 17 15 13 9 8 6 6 11 13 13 11 12 13 10
18 16 16 18 15 13 12 15 16 15 13 13 14 14 12 9 8 8 6 6 7 9 11 11 11 9 7 9 14 16 16 15 8 8 11 12 13 12 10 12 12 9 8
17 16 16 18 17 15 14 15 15 13 13 14 14 13 11 10 9 8 7 5 5 8 11 13 13 10 9 9 9 10 10 11 10 9 12 12 12 9 10 8 7 5 6
16 15 16 18 19 17 16 15 13 12 13 14 14 12 10 10 9 9 8 8 6 7 10 14 15 16 14 14 17 15 12 12 12 12 7 5 5 5 5 5 5 5 5
18 18 19 20 20 18 17 14 13 13 13 12 12 10 9 8 8 8 8 10 10 12 17 18 16 17 19 21 21 20 20 20 20 13 10 8 7 7 7 7 5 4 5
Wind_Direction
117 110 176 156 160 170 169 172 172 175 161 162 183 212 245 259 264 260 269 286 297 300 287 279 276 269 261 257 252 249 246 241 219 218 251 251 241 241 242 242 244 248 251
186 229 236 232 224 219 202 193 200 202 194 179 188 195 216 258 273 291 309 325 328 317 308 294 288 280 271 264 257 247 246 237 200 203 226 262 274 242 240 245 247 251 254
207 222 227 230 232 235 228 220 219 220 221 204 181 155 32 344 334 334 332 332 323 311 300 294 290 285 276 268 256 243 240 244 223 205 203 212 231 260 269 248 250 252 251
223 224 225 227 227 231 233 233 229 228 228 202 201 199 203 237 250 291 304 312 315 314 311 303 297 291 284 275 266 251 238 235 234 217 216 219 195 202 254 269 250 243 250
220 223 227 231 239 240 238 239 249 259 253 228 216 206 208 210 217 248 286 299 306 308 307 305 302 295 288 280 272 261 247 235 232 222 211 219 217 211 221 248 248 257 255
231 240 249 256 266 265 255 244 246 259 252 233 215 202 204 198 210 253 286 297 301 303 301 308 307 300 292 286 280 271 259 247 238 229 213 202 200 203 208 225 233 243 251
247 262 271 275 274 271 257 233 229 249 248 229 213 202 196 188 202 236 266 289 306 311 310 315 310 305 297 290 283 276 267 253 242 233 222 214 212 186 190 209 220 217 206
289 288 285 282 276 267 256 229 223 243 246 228 215 195 181 181 207 232 246 267 288 298 303 310 307 302 301 296 286 278 270 256 246 239 226 215 213 207 199 195 190 189 172
344 320 309 298 284 275 261 233 227 240 239 228 216 199 194 200 219 236 246 259 273 292 305 313 314 311 307 302 296 282 276 260 248 239 223 213 211 210 210 203 191 182 178
16 5 357 347 340 329 318 311 294 283 271 238 222 213 210 215 224 235 253 263 276 289 313 323 326 325 325 323 314 297 286 267 255 236 220 215 213 210 202 193 181 169 165
23 19 16 12 10 10 7 357 347 331 306 267 240 227 222 223 228 236 250 263 274 296 317 325 328 332 341 346 347 341 339 356 360 323 204 184 166 157 145 138 134 146 144
24 21 17 15 15 11 4 356 346 329 304 280 256 241 234 229 233 240 246 251 268 287 309 322 329 335 348 359 7 16 31 41 37 32 75 100 108 104 108 110 111 122 122
19 16 12 7 2 358 354 349 345 337 324 305 275 259 246 236 237 240 240 238 252 278 306 324 332 341 357 19 31 43 55 57 52 45 52 64 78 76 88 106 115 111 109
9 5 360 353 346 342 340 338 334 334 332 321 295 274 261 249 243 238 233 228 229 244 270 298 328 346 7 37 49 54 61 67 61 52 54 64 82 98 111 119 122 119 112
351 348 343 340 335 333 332 331 328 330 331 328 320 299 283 267 253 240 228 218 213 216 209 209 321 354 18 59 74 70 77 80 75 62 61 81 107 115 118 124 122 121 117
337 331 328 324 318 318 317 313 312 315 320 325 327 323 312 291 266 247 226 210 203 201 196 194 210 332 43 105 131 135 119 103 98 91 78 82 88 89 87 88 89 103 118
316 308 305 300 296 298 304 296 290 297 305 310 316 322 328 320 294 262 231 214 201 195 199 197 197 225 230 169 169 167 134 111 114 120 110 97 84 90 95 83 74 68 80
282 288 290 287 286 291 299 293 287 294 299 302 307 315 324 328 318 282 246 227 205 199 201 198 197 205 222 189 174 157 117 101 88 101 118 114 95 97 107 95 81 69 60
274 277 278 280 282 286 292 294 288 291 295 296 298 306 312 317 317 302 269 241 216 207 199 193 190 191 195 178 164 147 128 107 82 68 85 106 97 101 109 105 99 88 78
290 287 286 284 280 276 279 282 281 285 286 285 284 285 288 293 302 304 291 254 226 217 202 193 189 182 179 175 163 148 137 122 108 83 74 90 104 104 106 111 113 108 99
286 285 284 281 275 271 274 275 274 272 271 272 272 269 268 270 276 290 302 276 241 220 203 194 187 180 178 176 169 154 144 142 137 129 115 101 106 100 97 100 107 120 116
284 280 277 275 275 272 271 275 275 272 272 273 273 266 261 263 271 266 291 288 257 229 207 193 183 182 177 177 177 162 151 150 147 147 136 118 107 102 102 101 110 110 102
285 280 276 277 275 268 262 267 272 274 273 273 273 270 266 262 261 254 258 283 269 242 209 195 189 184 177 183 185 170 156 153 143 147 141 130 114 101 98 106 110 107 104
286 285 283 281 277 269 262 260 267 269 267 267 268 266 263 264 264 257 243 245 267 255 216 195 192 182 175 177 177 171 154 146 135 133 130 120 109 102 103 96 90 90 103
289 286 283 281 277 271 262 258 260 263 261 263 264 258 254 256 262 259 245 237 245 262 240 208 194 183 184 187 175 167 164 162 154 141 130 127 126 122 118 110 107 107 114
293 292 289 285 282 275 268 262 258 257 256 264 262 251 247 248 251 259 266 248 253 271 254 230 200 191 183 170 171 168 164 156 150 146 155 159 161 160 156 150 141 136 132
Height
1507 1509 1511 1512 1513 1513 1512 1513 1514 1514 1514 1515 1514 1514 1513 1512 1512 1510 1509 1508 1507 1505 1503 1502 1500 1499 1497 1496 1496 1495 1495 1494 1495 1496 1497 1497 1498 1498 1499 1500 1500 1501 1502
1507 1509 1510 1511 1511 1511 1511 1512 1513 1513 1513 1513 1512 1511 1510 1509 1508 1506 1505 1503 1501 1500 1497 1495 1494 1492 1490 1489 1488 1487 1487 1487 1488 1489 1490 1489 1490 1490 1492 1493 1493 1494 1494
1506 1507 1508 1509 1510 1510 1511 1511 1511 1511 1511 1511 1510 1508 1507 1506 1505 1503 1502 1499 1496 1494 1491 1489 1486 1484 1481 1479 1479 1478 1478 1478 1479 1481 1483 1482 1481 1483 1483 1484 1486 1487 1487
1505 1505 1506 1507 1508 1508 1509 1510 1510 1510 1509 1508 1507 1505 1504 1503 1501 1499 1497 1495 1492 1489 1485 1482 1478 1475 1471 1469 1468 1468 1469 1470 1471 1472 1473 1475 1476 1478 1477 1478 1480 1482 1482
1501 1502 1504 1505 1505 1506 1507 1507 1507 1507 1507 1505 1503 1501 1500 1499 1497 1495 1492 1490 1487 1483 1479 1474 1470 1466 1462 1459 1458 1458 1459 1461 1462 1464 1465 1466 1467 1469 1471 1471 1473 1476 1477
1497 1499 1500 1501 1502 1503 1504 1504 1504 1504 1503 1501 1499 1497 1496 1494 1493 1490 1488 1485 1481 1476 1472 1468 1464 1461 1457 1453 1451 1451 1452 1453 1454 1455 1456 1458 1460 1461 1463 1465 1467 1470 1471
1495 1496 1497 1498 1499 1499 1500 1500 1501 1500 1500 1497 1495 1493 1492 1490 1488 1486 1483 1479 1475 1471 1467 1464 1460 1457 1453 1450 1448 1446 1446 1446 1446 1448 1449 1450 1452 1454 1456 1459 1461 1464 1466
1494 1494 1495 1495 1496 1496 1496 1497 1497 1497 1496 1494 1491 1489 1488 1487 1485 1482 1479 1475 1471 1468 1464 1461 1457 1453 1450 1447 1444 1442 1441 1440 1440 1441 1442 1443 1445 1447 1450 1453 1456 1459 1461
1494 1493 1493 1493 1493 1493 1492 1493 1493 1493 1492 1491 1488 1486 1484 1483 1481 1478 1475 1472 1468 1465 1461 1458 1454 1450 1447 1444 1441 1439 1437 1436 1435 1435 1436 1437 1439 1441 1444 1447 1451 1455 1456
1493 1492 1491 1490 1490 1490 1490 1490 1490 1490 1489 1488 1485 1483 1481 1479 1477 1474 1472 1469 1465 1462 1459 1455 1452 1448 1445 1441 1439 1436 1434 1432 1430 1430 1430 1432 1434 1436 1438 1441 1445 1448 1452
1494 1492 1490 1489 1489 1488 1487 1487 1488 1487 1487 1485 1483 1480 1478 1475 1473 1471 1468 1466 1463 1459 1456 1452 1450 1447 1443 1439 1436 1433 1431 1429 1427 1426 1427 1428 1430 1432 1434 1438 1442 1446 1449
1495 1493 1491 1490 1488 1487 1487 1486 1486 1485 1483 1481 1479 1476 1474 1472 1470 1467 1465 1462 1460 1457 1453 1451 1448 1446 1441 1437 1434 1431 1429 1428 1426 1426 1425 1426 1428 1431 1434 1437 1441 1445 1448
1496 1494 1492 1491 1489 1487 1486 1484 1482 1480 1478 1476 1474 1472 1470 1467 1465 1463 1461 1459 1457 1455 1452 1449 1447 1445 1442 1437 1434 1431 1430 1428 1427 1427 1427 1427 1429 1431 1434 1438 1442 1445 1449
1499 1495 1493 1491 1489 1486 1483 1481 1479 1476 1472 1470 1467 1465 1464 1462 1461 1459 1457 1456 1454 1452 1450 1448 1447 1445 1443 1440 1436 1434 1432 1430 1429 1430 1430 1431 1432 1434 1437 1440 1444 1447 1450
1498 1495 1492 1488 1486 1483 1480 1477 1475 1472 1468 1465 1461 1458 1456 1455 1454 1453 1452 1451 1450 1449 1448 1447 1446 1445 1444 1441 1439 1437 1435 1433 1433 1434 1435 1436 1437 1438 1440 1443 1446 1449 1452
1497 1494 1489 1485 1482 1479 1475 1472 1469 1467 1464 1460 1456 1452 1449 1447 1446 1446 1446 1446 1445 1445 1445 1444 1444 1444 1443 1442 1441 1440 1439 1438 1438 1439 1440 1441 1442 1443 1444 1447 1450 1452 1454
1495 1492 1488 1484 1480 1477 1473 1468 1465 1462 1459 1455 1452 1449 1444 1441 1439 1438 1438 1439 1439 1440 1440 1441 1442 1442 1443 1443 1443 1443 1442 1442 1442 1443 1444 1446 1447 1447 1448 1450 1452 1454 1456
1492 1489 1484 1480 1475 1471 1467 1462 1459 1456 1453 1450 1447 1444 1440 1436 1433 1431 1431 1432 1433 1434 1436 1437 1438 1439 1441 1442 1443 1444 1444 1444 1445 1446 1447 1448 1449 1450 1450 1451 1453 1455 1457
1487 1482 1478 1473 1468 1465 1461 1457 1453 1451 1447 1444 1441 1438 1435 1431 1428 1426 1425 1424 1426 1428 1430 1432 1434 1435 1438 1440 1442 1443 1445 1446 1447 1448 1449 1449 1449 1450 1450 1451 1452 1455 1457
1479 1474 1470 1465 1460 1457 1454 1450 1446 1443 1441 1438 1435 1433 1430 1427 1423 1421 1419 1418 1418 1420 1424 1427 1429 1431 1434 1437 1440 1442 1444 1446 1447 1448 1449 1449 1450 1450 1451 1452 1453 1455 1457
1470 1465 1461 1456 1451 1448 1445 1440 1436 1434 1433 1431 1428 1426 1424 1421 1418 1415 1413 1412 1411 1413 1416 1420 1424 1426 1430 1434 1438 1441 1443 1445 1447 1448 1449 1449 1450 1451 1452 1453 1454 1455 1458
1461 1456 1451 1445 1441 1439 1436 1430 1426 1425 1424 1422 1420 1417 1415 1413 1410 1408 1406 1405 1405 1405 1407 1412 1418 1421 1425 1430 1435 1439 1442 1445 1447 1448 1449 1450 1451 1451 1452 1453 1454 1456 1459
1450 1445 1440 1433 1430 1428 1425 1420 1417 1416 1414 1412 1410 1407 1405 1404 1402 1400 1398 1397 1398 1398 1398 1403 1409 1414 1420 1425 1431 1436 1440 1443 1446 1448 1449 1450 1452 1453 1454 1454 1456 1458 1459
1439 1433 1428 1421 1417 1415 1412 1409 1406 1405 1402 1400 1398 1397 1396 1394 1392 1391 1389 1388 1389 1390 1390 1394 1401 1407 1414 1420 1426 1432 1436 1441 1445 1447 1449 1451 1453 1455 1456 1456 1457 1459 1460
1427 1421 1415 1409 1403 1400 1398 1396 1394 1393 1390 1388 1387 1387 1386 1385 1383 1382 1381 1380 1380 1381 1383 1386 1393 1399 1406 1413 1420 1426 1432 1437 1441 1445 1448 1451 1453 1455 1456 1457 1459 1460 1462
1415 1408 1402 1395 1390 1386 1383 1381 1380 1379 1377 1376 1376 1376 1377 1376 1375 1374 1372 1370 1370 1370 1372 1378 1387 1394 1401 1409 1417 1423 1429 1434 1438 1442 1445 1449 1452 1455 1457 1458 1460 1462 1463